When you browse on this site, cookies collect data to enhance your experience and personalize the content and advertising you see.
Visit our Privacy Policy to learn more. By continuing to use the site, you agree to this use of cookies and data.
  • In Lithuania
  • List of Countries
  • For 7 days
  • Water Temperature
  • Weather Map
  • Weather Widgets
  • user-avatar
    Login

    Hourly Weather Bafoussam

    Today, 30 May, Saturday

    Time Temperature Precipitation Wind Pressure Humidity
    00:00 +19°C° 2.6 mm 1 mps 644 mmHg 97%
    01:00 +17°C° 2.6 mm 0 mps 644 mmHg 97%
    02:00 +17°C° 0.3 mm 0 mps 644 mmHg 96%
    03:00 +16°C° 0.3 mm 0 mps 643 mmHg 95%
    04:00 +16°C° 0.3 mm 0 mps 643 mmHg 94%
    05:00 +16°C° 0.1 mm 0 mps 643 mmHg 94%
    06:00 +17°C° 0.1 mm 0 mps 644 mmHg 94%
    07:00 +17°C° 0.1 mm 0 mps 644 mmHg 94%
    08:00 +21°C° 0.3 mm 1 mps 645 mmHg 91%
    09:00 +22°C° 0.3 mm 1 mps 645 mmHg 88%
    10:00 +23°C° 0.3 mm 2 mps 646 mmHg 86%
    11:00 +24°C° 0.2 mm 1 mps 646 mmHg 81%
    12:00 +25°C° 0.2 mm 1 mps 646 mmHg 77%
    13:00 +26°C° 0.2 mm 1 mps 646 mmHg 72%
    14:00 +26°C° 0.7 mm 1 mps 645 mmHg 74%
    15:00 +25°C° 0.7 mm 1 mps 644 mmHg 77%
    16:00 +25°C° 0.7 mm 1 mps 644 mmHg 79%
    17:00 +23°C° 0.4 mm 1 mps 644 mmHg 84%
    18:00 +20°C° 0.4 mm 0 mps 643 mmHg 88%
    19:00 +18°C° 0.4 mm 0 mps 643 mmHg 92%
    20:00 +18°C° 0.3 mm 0 mps 644 mmHg 93%
    21:00 +17°C° 0.3 mm 0 mps 644 mmHg 93%
    22:00 +17°C° 0.3 mm 0 mps 644 mmHg 93%
    23:00 +17°C° 0 mm 0 mps 644 mmHg 93%

    Tomorrow, 31 May, Sunday

    Time Temperature Precipitation Wind Pressure Humidity
    00:00 +17°C° 0 mm 0 mps 644 mmHg 92%
    01:00 +17°C° 0 mm 0 mps 644 mmHg 92%
    02:00 +17°C° 0 mm 0 mps 644 mmHg 92%
    03:00 +17°C° 0 mm 0 mps 644 mmHg 92%
    04:00 +18°C° 0 mm 1 mps 644 mmHg 92%
    05:00 +17°C° 0 mm 0 mps 644 mmHg 92%
    06:00 +17°C° 0 mm 0 mps 644 mmHg 91%
    07:00 +17°C° 0 mm 0 mps 645 mmHg 91%
    08:00 +20°C° 0 mm 0 mps 646 mmHg 84%
    09:00 +24°C° 0 mm 1 mps 646 mmHg 76%
    10:00 +26°C° 0 mm 1 mps 647 mmHg 69%
    11:00 +26°C° 0.1 mm 1 mps 647 mmHg 68%
    12:00 +27°C° 0.1 mm 2 mps 646 mmHg 67%
    13:00 +27°C° 0.1 mm 2 mps 646 mmHg 66%
    14:00 +26°C° 0.6 mm 2 mps 645 mmHg 70%
    15:00 +26°C° 0.6 mm 2 mps 645 mmHg 75%
    16:00 +25°C° 0.6 mm 2 mps 644 mmHg 80%
    17:00 +24°C° 0.4 mm 1 mps 644 mmHg 84%
    18:00 +22°C° 0.4 mm 1 mps 644 mmHg 88%
    19:00 +18°C° 0.4 mm 0 mps 644 mmHg 92%
    20:00 +18°C° 0.2 mm 0 mps 644 mmHg 93%
    21:00 +18°C° 0.2 mm 0 mps 645 mmHg 93%
    22:00 +17°C° 0.2 mm 0 mps 645 mmHg 93%
    23:00 +17°C° 0.2 mm 0 mps 645 mmHg 93%

    Day after tomorrow, 1 June, Monday

    Time Temperature Precipitation Wind Pressure Humidity
    00:00 +17°C° 0.2 mm 0 mps 645 mmHg 93%
    01:00 +17°C° 0.2 mm 0 mps 645 mmHg 93%
    02:00 +17°C° 0.2 mm 0 mps 644 mmHg 93%
    03:00 +16°C° 0.2 mm 0 mps 644 mmHg 94%
    04:00 +16°C° 0.2 mm 0 mps 644 mmHg 94%
    05:00 +17°C° 0.1 mm 0 mps 644 mmHg 93%
    06:00 +17°C° 0.1 mm 0 mps 645 mmHg 93%
    07:00 +17°C° 0.1 mm 0 mps 645 mmHg 93%
    08:00 +21°C° 0.2 mm 1 mps 646 mmHg 87%
    09:00 +23°C° 0.2 mm 1 mps 646 mmHg 80%
    10:00 +25°C° 0.2 mm 1 mps 647 mmHg 74%
    11:00 +25°C° 0.8 mm 2 mps 647 mmHg 74%
    12:00 +25°C° 0.8 mm 2 mps 646 mmHg 74%
    13:00 +25°C° 0.8 mm 2 mps 646 mmHg 75%
    14:00 +25°C° 0.7 mm 2 mps 645 mmHg 75%
    15:00 +25°C° 0.7 mm 1 mps 645 mmHg 76%
    16:00 +25°C° 0.7 mm 1 mps 644 mmHg 77%
    17:00 +23°C° 0.5 mm 1 mps 644 mmHg 82%
    18:00 +20°C° 0.5 mm 0 mps 644 mmHg 87%
    19:00 +18°C° 0.5 mm 0 mps 644 mmHg 92%
    20:00 +18°C° 0.6 mm 0 mps 644 mmHg 92%
    21:00 +19°C° 0.6 mm 1 mps 644 mmHg 93%
    22:00 +19°C° 0.6 mm 1 mps 644 mmHg 93%
    23:00 +19°C° 0.4 mm 1 mps 644 mmHg 93%

    2 June, Tuesday

    Time Temperature Precipitation Wind Pressure Humidity
    00:00 +19°C° 0.4 mm 1 mps 644 mmHg 93%
    01:00 +18°C° 0.4 mm 1 mps 644 mmHg 93%
    02:00 +18°C° 0.1 mm 1 mps 644 mmHg 93%
    03:00 +18°C° 0.1 mm 1 mps 644 mmHg 92%
    04:00 +18°C° 0.1 mm 1 mps 643 mmHg 92%
    05:00 +18°C° 0.1 mm 1 mps 644 mmHg 93%
    06:00 +19°C° 0.1 mm 1 mps 644 mmHg 93%
    07:00 +17°C° 0.1 mm 0 mps 645 mmHg 93%
    08:00 +19°C° 0.3 mm 0 mps 646 mmHg 88%
    09:00 +21°C° 0.3 mm 0 mps 646 mmHg 82%
    10:00 +24°C° 0.3 mm 0 mps 647 mmHg 77%
    11:00 +26°C° 0.9 mm 1 mps 647 mmHg 76%
    12:00 +26°C° 0.9 mm 1 mps 646 mmHg 74%
    13:00 +26°C° 0.9 mm 1 mps 645 mmHg 73%
    14:00 +26°C° 0.6 mm 1 mps 645 mmHg 75%
    15:00 +26°C° 0.6 mm 1 mps 644 mmHg 77%
    16:00 +25°C° 0.6 mm 1 mps 644 mmHg 79%
    17:00 +24°C° 0.9 mm 1 mps 644 mmHg 84%
    18:00 +22°C° 0.9 mm 1 mps 644 mmHg 89%
    19:00 +21°C° 0.9 mm 1 mps 643 mmHg 94%
    20:00 +20°C° 0.3 mm 1 mps 644 mmHg 94%
    21:00 +20°C° 0.3 mm 1 mps 644 mmHg 95%
    22:00 +19°C° 0.3 mm 1 mps 644 mmHg 95%
    23:00 +19°C° 0.5 mm 1 mps 644 mmHg 95%

    3 June, Wednesday

    Time Temperature Precipitation Wind Pressure Humidity
    00:00 +19°C° 0.5 mm 1 mps 644 mmHg 95%
    01:00 +18°C° 0.5 mm 1 mps 644 mmHg 96%
    02:00 +18°C° 0.1 mm 1 mps 644 mmHg 96%
    03:00 +18°C° 0.1 mm 1 mps 643 mmHg 96%
    04:00 +18°C° 0.1 mm 1 mps 643 mmHg 96%
    05:00 +18°C° 0 mm 1 mps 644 mmHg 95%
    06:00 +19°C° 0 mm 1 mps 644 mmHg 95%
    07:00 +19°C° 0 mm 1 mps 644 mmHg 95%
    08:00 +21°C° 0 mm 1 mps 645 mmHg 88%
    09:00 +23°C° 0 mm 1 mps 646 mmHg 82%
    10:00 +25°C° 0 mm 1 mps 647 mmHg 76%
    11:00 +26°C° 0.4 mm 1 mps 646 mmHg 75%
    12:00 +26°C° 0.4 mm 1 mps 646 mmHg 74%
    13:00 +27°C° 0.4 mm 1 mps 645 mmHg 72%
    14:00 +26°C° 1 mm 1 mps 644 mmHg 76%
    15:00 +25°C° 1 mm 1 mps 644 mmHg 80%
    16:00 +25°C° 1 mm 1 mps 643 mmHg 84%
    17:00 +23°C° 1 mm 1 mps 643 mmHg 87%
    18:00 +22°C° 1 mm 1 mps 643 mmHg 91%
    19:00 +21°C° 1 mm 1 mps 643 mmHg 94%
    20:00 +20°C° 0.4 mm 1 mps 644 mmHg 95%
    21:00 +20°C° 0.4 mm 1 mps 644 mmHg 95%
    22:00 +20°C° 0.4 mm 1 mps 644 mmHg 96%
    23:00 +19°C° 0 mm 1 mps 644 mmHg 96%

    4 June, Thursday

    Time Temperature Precipitation Wind Pressure Humidity
    00:00 +19°C° 0 mm 1 mps 644 mmHg 96%
    01:00 +19°C° 0 mm 1 mps 644 mmHg 97%
    02:00 +19°C° 0.1 mm 1 mps 643 mmHg 97%
    03:00 +19°C° 0.1 mm 1 mps 643 mmHg 96%
    04:00 +17°C° 0.1 mm 0 mps 643 mmHg 96%
    05:00 +19°C° 0.7 mm 1 mps 644 mmHg 96%
    06:00 +19°C° 0.7 mm 1 mps 644 mmHg 96%
    07:00 +20°C° 0.7 mm 1 mps 645 mmHg 95%
    08:00 +21°C° 0.2 mm 1 mps 645 mmHg 91%
    09:00 +23°C° 0.2 mm 1 mps 646 mmHg 86%
    10:00 +25°C° 0.2 mm 1 mps 647 mmHg 81%
    11:00 +25°C° 0.6 mm 1 mps 646 mmHg 80%
    12:00 +24°C° 0.6 mm 0 mps 646 mmHg 79%
    13:00 +24°C° 0.6 mm 0 mps 646 mmHg 78%
    14:00 +24°C° 1.2 mm 0 mps 645 mmHg 81%
    15:00 +23°C° 1.2 mm 0 mps 645 mmHg 84%
    16:00 +22°C° 1.2 mm 0 mps 644 mmHg 87%
    17:00 +21°C° 1.3 mm 0 mps 644 mmHg 90%
    18:00 +20°C° 1.3 mm 0 mps 644 mmHg 92%
    19:00 +19°C° 1.3 mm 0 mps 644 mmHg 94%
    20:00 +18°C° 0.1 mm 0 mps 644 mmHg 94%
    21:00 +20°C° 0.1 mm 1 mps 644 mmHg 94%
    22:00 +19°C° 0.1 mm 1 mps 644 mmHg 95%
    23:00 +19°C° 0 mm 1 mps 644 mmHg 95%
    Show more